Location: Unspecified
(40.6275°N, 0.0000°E)
Time: 04:48:22
(UTC+00:00)

PERUSAT 1 - Visible Passes

Search period start: 04 April 2026 00:00
Search period end: 14 April 2026 00:00
Orbit: 697 x 699 km, 98.2° (Epoch: 29 March)

Date Brightness Start Highest point End Pass type
(mag) Time Alt. Az. Time Alt. Az. Time Alt. Az.
4 Apr ? 21:51:52 24° N 21:51:52 24° N 21:53:43 10° N visible
5 Apr ? 20:54:46 17° NE 20:54:46 17° NE 20:56:30 10° NNE visible
5 Apr ? 22:33:32 17° NW 22:33:32 17° NW 22:34:48 10° NNW visible
6 Apr ? 21:36:27 26° N 21:36:27 26° N 21:38:35 10° N visible
7 Apr ? 20:39:21 14° NE 20:39:21 14° NE 20:40:50 10° NNE visible
7 Apr ? 22:18:07 23° NNW 22:18:07 23° NNW 22:19:55 10° NNW visible
8 Apr ? 21:21:02 25° NNE 21:21:02 25° NNE 21:23:21 10° N visible
8 Apr ? 22:59:48 13° NW 22:59:48 13° NW 23:00:24 10° NW visible
9 Apr ? 20:23:56 11° NE 20:23:56 11° NE 20:24:35 10° NE visible
9 Apr ? 22:02:43 28° NNW 22:02:43 28° NNW 22:04:56 10° NNW visible
10 Apr ? 21:05:37 22° NE 21:05:37 22° NE 21:08:00 10° N visible
10 Apr ? 22:44:24 17° NW 22:44:24 17° NW 22:45:47 10° NW visible
11 Apr ? 21:47:18 32° N 21:47:18 32° N 21:49:51 10° N visible
12 Apr ? 20:50:12 18° NE 20:50:12 18° NE 20:52:31 10° NNE visible
12 Apr ? 22:28:59 24° NW 22:28:59 24° NW 22:30:59 10° NNW visible
13 Apr ? 21:31:53 32° NNE 21:31:53 32° NNE 21:34:41 10° N visible
13 Apr ? 23:10:39 12° NW 23:10:39 12° NW 23:11:06 10° NW visible
